When you browse on this site, cookies collect data to enhance your experience and personalize the content and advertising you see.
Visit our Privacy Policy to learn more. By continuing to use the site, you agree to this use of cookies and data.
  • în România
  • Lista ţărilor
  • Pe 7 zile
  • Temperatura apei
  • Meteo pe hartă
  • Widget-uri
  • user-avatar
    Intrare

    Meteo pe oră la Sarajevo

    Astăzi, 19 Ianuarie, Duminică

    Timp Temperatura Precipitaţii Vânt Presiune Umiditate
    00:00 +1°C° 0.6 mm 1 m/s 689 mmHg 94%
    01:00 -2°C° 0 mm 2 m/s 689 mmHg 93%
    02:00 -2°C° 1.4 mm 2 m/s 689 mmHg 94%
    03:00 -2°C° 1.4 mm 2 m/s 689 mmHg 94%
    04:00 -3°C° 1.4 mm 2 m/s 689 mmHg 95%
    05:00 -3°C° 0.8 mm 2 m/s 689 mmHg 95%
    06:00 -3°C° 0.8 mm 2 m/s 690 mmHg 94%
    07:00 -3°C° 0.8 mm 2 m/s 690 mmHg 94%
    08:00 -3°C° 0.1 mm 2 m/s 690 mmHg 92%
    09:00 -2°C° 0.1 mm 2 m/s 690 mmHg 89%
    10:00 -2°C° 0.1 mm 2 m/s 691 mmHg 87%
    11:00 -1°C° 0 mm 2 m/s 691 mmHg 87%
    12:00 -1°C° 0 mm 2 m/s 691 mmHg 87%
    13:00 +1°C° 0 mm 2 m/s 692 mmHg 87%
    14:00 -1°C° 0 mm 2 m/s 692 mmHg 88%
    15:00 -1°C° 0 mm 2 m/s 693 mmHg 88%
    16:00 -1°C° 0 mm 2 m/s 693 mmHg 89%
    17:00 -2°C° 0 mm 2 m/s 693 mmHg 90%
    18:00 -3°C° 0 mm 2 m/s 694 mmHg 91%
    19:00 -4°C° 0 mm 2 m/s 694 mmHg 92%
    20:00 -4°C° 0 mm 2 m/s 695 mmHg 92%
    21:00 -4°C° 0 mm 2 m/s 695 mmHg 92%
    22:00 -5°C° 0 mm 2 m/s 696 mmHg 92%
    23:00 -5°C° 0 mm 2 m/s 696 mmHg 92%

    Mâine, 20 Ianuarie, Luni

    Timp Temperatura Precipitaţii Vânt Presiune Umiditate
    00:00 -5°C° 0 mm 2 m/s 696 mmHg 92%
    01:00 -5°C° 0 mm 2 m/s 697 mmHg 91%
    02:00 -5°C° 0 mm 2 m/s 697 mmHg 91%
    03:00 -5°C° 0 mm 2 m/s 697 mmHg 91%
    04:00 -5°C° 0 mm 2 m/s 697 mmHg 90%
    05:00 -5°C° 0 mm 2 m/s 698 mmHg 90%
    06:00 -5°C° 0 mm 2 m/s 698 mmHg 91%
    07:00 -5°C° 0 mm 2 m/s 699 mmHg 91%
    08:00 -5°C° 0 mm 2 m/s 699 mmHg 89%
    09:00 -5°C° 0 mm 3 m/s 700 mmHg 87%
    10:00 -4°C° 0 mm 3 m/s 700 mmHg 84%
    11:00 -2°C° 0 mm 3 m/s 701 mmHg 84%
    12:00 -2°C° 0 mm 3 m/s 701 mmHg 83%
    13:00 -1°C° 0 mm 3 m/s 702 mmHg 82%
    14:00 -1°C° 0 mm 2 m/s 702 mmHg 84%
    15:00 -2°C° 0 mm 2 m/s 702 mmHg 85%
    16:00 -2°C° 0 mm 2 m/s 702 mmHg 87%
    17:00 -3°C° 0 mm 2 m/s 702 mmHg 89%
    18:00 -4°C° 0 mm 2 m/s 702 mmHg 90%
    19:00 -5°C° 0 mm 2 m/s 702 mmHg 92%
    20:00 -5°C° 0 mm 2 m/s 702 mmHg 92%
    21:00 -5°C° 0 mm 2 m/s 703 mmHg 91%
    22:00 -6°C° 0 mm 2 m/s 703 mmHg 91%
    23:00 -6°C° 0 mm 2 m/s 703 mmHg 90%

    Poimâine, 21 Ianuarie, Marţi

    Timp Temperatura Precipitaţii Vânt Presiune Umiditate
    00:00 -6°C° 0 mm 2 m/s 703 mmHg 89%
    01:00 -6°C° 0 mm 2 m/s 703 mmHg 88%
    02:00 -6°C° 0 mm 2 m/s 703 mmHg 86%
    03:00 -6°C° 0 mm 2 m/s 702 mmHg 84%
    04:00 -6°C° 0 mm 2 m/s 702 mmHg 82%
    05:00 -6°C° 0 mm 2 m/s 702 mmHg 79%
    06:00 -5°C° 0 mm 2 m/s 702 mmHg 77%
    07:00 -5°C° 0 mm 2 m/s 702 mmHg 74%
    08:00 -3°C° 0 mm 2 m/s 703 mmHg 72%
    09:00 0°C° 0 mm 1 m/s 703 mmHg 69%
    10:00 +2°C° 0 mm 1 m/s 703 mmHg 66%
    11:00 +3°C° 0 mm 1 m/s 703 mmHg 67%
    12:00 +4°C° 0 mm 1 m/s 703 mmHg 68%
    13:00 +6°C° 0 mm 1 m/s 703 mmHg 70%
    14:00 +5°C° 0 mm 1 m/s 702 mmHg 71%
    15:00 +4°C° 0 mm 1 m/s 702 mmHg 72%
    16:00 +3°C° 0 mm 1 m/s 701 mmHg 73%
    17:00 +2°C° 0 mm 1 m/s 701 mmHg 70%
    18:00 +1°C° 0 mm 1 m/s 701 mmHg 67%
    19:00 0°C° 0 mm 1 m/s 700 mmHg 64%
    20:00 0°C° 0 mm 1 m/s 700 mmHg 62%
    21:00 0°C° 0 mm 1 m/s 700 mmHg 59%
    22:00 0°C° 0 mm 1 m/s 700 mmHg 57%
    23:00 +1°C° 0 mm 1 m/s 699 mmHg 55%

    22 Ianuarie, Miercuri

    Timp Temperatura Precipitaţii Vânt Presiune Umiditate
    00:00 +1°C° 0 mm 1 m/s 699 mmHg 53%
    01:00 +1°C° 0 mm 1 m/s 699 mmHg 51%
    02:00 +1°C° 0 mm 1 m/s 699 mmHg 50%
    03:00 +1°C° 0 mm 1 m/s 698 mmHg 48%
    04:00 +1°C° 0 mm 1 m/s 698 mmHg 46%
    05:00 +1°C° 0 mm 1 m/s 698 mmHg 45%
    06:00 +1°C° 0 mm 1 m/s 698 mmHg 43%
    07:00 +1°C° 0 mm 1 m/s 697 mmHg 41%
    08:00 +3°C° 0 mm 1 m/s 698 mmHg 45%
    09:00 +4°C° 0 mm 0 m/s 698 mmHg 48%
    10:00 +6°C° 0 mm 0 m/s 698 mmHg 51%
    11:00 +6°C° 0 mm 0 m/s 698 mmHg 53%
    12:00 +7°C° 0 mm 0 m/s 698 mmHg 55%
    13:00 +8°C° 0 mm 0 m/s 697 mmHg 57%
    14:00 +6°C° 0 mm 0 m/s 697 mmHg 57%
    15:00 +5°C° 0 mm 0 m/s 696 mmHg 57%
    16:00 +4°C° 0 mm 0 m/s 696 mmHg 57%
    17:00 +3°C° 0 mm 0 m/s 696 mmHg 54%
    18:00 +3°C° 0 mm 0 m/s 695 mmHg 51%
    19:00 +3°C° 0 mm 1 m/s 695 mmHg 48%
    20:00 +3°C° 0 mm 1 m/s 695 mmHg 47%
    21:00 +3°C° 0 mm 1 m/s 695 mmHg 46%
    22:00 +3°C° 0 mm 1 m/s 695 mmHg 45%
    23:00 +2°C° 0 mm 1 m/s 695 mmHg 49%

    23 Ianuarie, Joi

    Timp Temperatura Precipitaţii Vânt Presiune Umiditate
    00:00 +2°C° 0 mm 1 m/s 695 mmHg 52%
    01:00 -1°C° 0 mm 2 m/s 695 mmHg 55%
    02:00 -1°C° 0 mm 2 m/s 695 mmHg 56%
    03:00 -1°C° 0 mm 2 m/s 695 mmHg 57%
    04:00 -1°C° 0 mm 2 m/s 695 mmHg 58%
    05:00 -1°C° 0 mm 2 m/s 695 mmHg 57%
    06:00 -2°C° 0 mm 2 m/s 695 mmHg 57%
    07:00 -2°C° 0 mm 2 m/s 695 mmHg 57%
    08:00 -1°C° 0 mm 2 m/s 695 mmHg 57%
    09:00 +2°C° 0 mm 2 m/s 695 mmHg 57%
    10:00 +3°C° 0 mm 2 m/s 696 mmHg 57%
    11:00 +4°C° 0 mm 2 m/s 696 mmHg 60%
    12:00 +5°C° 0 mm 2 m/s 696 mmHg 63%
    13:00 +6°C° 0 mm 2 m/s 696 mmHg 65%
    14:00 +5°C° 0 mm 2 m/s 696 mmHg 70%
    15:00 +4°C° 0 mm 2 m/s 696 mmHg 75%
    16:00 +3°C° 0 mm 2 m/s 695 mmHg 79%
    17:00 +2°C° 0 mm 2 m/s 695 mmHg 81%
    18:00 +1°C° 0 mm 2 m/s 695 mmHg 84%
    19:00 -1°C° 0 mm 2 m/s 695 mmHg 86%
    20:00 -1°C° 0 mm 2 m/s 695 mmHg 85%
    21:00 -2°C° 0 mm 2 m/s 695 mmHg 85%
    22:00 -2°C° 0 mm 2 m/s 695 mmHg 84%
    23:00 -2°C° 0 mm 2 m/s 695 mmHg 80%

    24 Ianuarie, Vineri

    Timp Temperatura Precipitaţii Vânt Presiune Umiditate
    00:00 -2°C° 0 mm 2 m/s 695 mmHg 77%
    01:00 0°C° 0 mm 1 m/s 694 mmHg 73%
    02:00 +1°C° 0 mm 1 m/s 694 mmHg 69%
    03:00 +1°C° 0 mm 1 m/s 694 mmHg 64%
    04:00 +1°C° 0 mm 1 m/s 694 mmHg 60%
    05:00 +1°C° 0 mm 1 m/s 694 mmHg 55%
    06:00 +2°C° 0 mm 1 m/s 694 mmHg 50%
    07:00 +2°C° 0 mm 1 m/s 694 mmHg 45%
    08:00 +3°C° 0 mm 1 m/s 695 mmHg 46%
    09:00 +5°C° 0 mm 1 m/s 695 mmHg 47%
    10:00 +5°C° 0 mm 2 m/s 696 mmHg 48%
    11:00 +6°C° 0 mm 2 m/s 696 mmHg 50%
    12:00 +7°C° 0 mm 2 m/s 696 mmHg 53%
    13:00 +7°C° 0 mm 2 m/s 695 mmHg 55%
    14:00 +6°C° 0 mm 2 m/s 695 mmHg 62%
    15:00 +5°C° 0 mm 2 m/s 695 mmHg 68%
    16:00 +4°C° 0 mm 2 m/s 695 mmHg 74%
    17:00 +3°C° 0 mm 2 m/s 694 mmHg 79%
    18:00 +2°C° 0 mm 2 m/s 694 mmHg 84%
    19:00 +1°C° 0 mm 2 m/s 694 mmHg 88%
    20:00 +2°C° 0 mm 2 m/s 694 mmHg 89%
    21:00 +2°C° 0 mm 2 m/s 694 mmHg 90%
    22:00 +2°C° 0 mm 2 m/s 694 mmHg 91%
    23:00 +2°C° 0 mm 2 m/s 694 mmHg 91%
    Arată mai mult